Overview Statistics Trail Chart Weather Telemetry Raw packets
 

This is the latest recevied weather packets stored in our database for station/object KQ4WWD. If no packets are shown the sender has not sent any weather packets the latest 10 day(s).

<< 12 13 14 15 16 17 18 >>
Time Temp. Humidity Pressure Rain* Wind** Luminosity Snow
1788526402 28.33° C 86% 1015 hPa 0 mm - 50 W/m² -
1788526101 27.78° C 87% 1015 hPa 0 mm - 46 W/m² -
1788525799 27.78° C 87% 1015.1 hPa 0 mm - 43 W/m² -
1788525498 27.22° C 87% 1015.1 hPa 0 mm - 40 W/m² -
1788525194 27.22° C 87% 1015.1 hPa 0 mm - 41 W/m² -
1788524889 27.22° C 88% 1015.1 hPa 0 mm - 108 W/m² -
1788524588 27.22° C 88% 1015.1 hPa 0 mm - 37 W/m² -
1788524284 27.22° C 88% 1015.1 hPa 0 mm - 36 W/m² -
1788523980 26.67° C 89% 1015 hPa 0 mm - 44 W/m² -
1788523676 26.67° C 89% 1015.1 hPa 0 mm - 40 W/m² -
1788523371 26.11° C 90% 1014.9 hPa 0 mm - 32 W/m² -
1788523067 26.11° C 90% 1015 hPa 0 mm - 29 W/m² -
1788522762 26.11° C 91% 1015 hPa 0 mm - 29 W/m² -
1788522456 25.56° C 91% 1014.8 hPa 0 mm - 28 W/m² -
1788522156 25.56° C 92% 1014.8 hPa 0 mm - 24 W/m² -
1788521851 25.56° C 92% 1014.7 hPa 0 mm - 20 W/m² -
1788521550 25.56° C 92% 1014.7 hPa 0 mm - 17 W/m² -
1788521245 25.56° C 92% 1014.5 hPa 0 mm - 11 W/m² -
1788520941 25.56° C 92% 1014.6 hPa 0 mm - 7 W/m² -
1788520636 25.56° C 92% 1014.5 hPa 0 mm - 4 W/m² -
1788520332 25.56° C 92% 1014.6 hPa 0 mm - 2 W/m² -
1788520028 25.56° C 92% 1014.5 hPa 0 mm - 0 W/m² -
1788519727 25.56° C 92% 1014.2 hPa 0 mm - 0 W/m² -
1788519421 25.56° C 92% 1014.2 hPa 0 mm - 0 W/m² -
1788519116 25° C 92% 1014.3 hPa 0 mm - 0 W/m² -

* Rain latest hour (hover to see other rain measurements)
** Current wind speed in m/s (hover to see current wind gust speed)